Main page
METAR-TAF:

METAR-TAF

Airports :

Casablanca–Anfa Airport

Casablanca, Morocco

latitude: 33-34N, longitude: 007-40W, elevation: 62 m

Current weather observation

The report was made 1 hour and 10 minutes ago, at 07:00 UTC
Wind 8 kt from the South/Southwest
Temperature 12°C
Humidity 82%
Pressure 1018 hPa
Visibility 10 km or more
Few clouds at a height of 1600 ft
Scattered clouds at a height of 2600 ft
Broken clouds at a height of 10000 ft

METAR: GMMC 080700Z 20008KT 9999 FEW016 SCT026 BKN100 12/09 Q1018

Time: 09:10 (08:10 UTC)


TAF: missing

Weather observations and forecasts of more than 4000 airports (METAR and TAF reports).

The available stations are represented by yellow and red dots on the map.

Hover mouse over dot to see the name of the station.

Then click to see weather observations and forecasts.

To change the map : click on the green buttons with a black cross to zoom in, on the green button with a dash to zoom out, or on the green arrows for adjacent maps.


METAR-TAF: